Monroe, NC

3:43 PM EST on November 22, 2019 (GMT -0500)
Monroe

Weather History for KEQY - October, 2019

Change the Weather History Date:

Monday, October 21, 2019

  Actual Average (WUND) Record (WUND)
Temperature  
Mean Temperature 64 °F -  
Max Temperature 75 °F - - (-1)
Min Temperature 55 °F - - (-1)
Degree Days  
Heating Degree Days 1    
Growing Degree Days 14 (Base 50)    
Moisture  
Dew Point 56 °F    
Average Humidity 85    
Maximum Humidity 97    
Minimum Humidity 61    
Precipitation  
Precipitation 0.00 in - - ()
Sea Level Pressure  
Sea Level Pressure 30.04 in    
Wind  
Wind Speed 1 mph ()    
Max Wind Speed 7 mph    
Max Gust Speed -    
Visibility 6.8 miles    
Events      
Averages and records for this station are not official NWS values.
T = Trace of Precipitation, MM = Missing Value Source: Averaged Metar Reports

Daily Weather History Graph

Daily Weather History Graph

Search for Another Location

Airport or City:

Astronomy

Oct. 21, 2019 Rise Set
Actual Time 7:33 AM EDT 6:40 PM EDT
Civil Twilight 7:07 AM EDT 7:06 PM EDT
Nautical Twilight 6:38 AM EDT 7:35 PM EDT
Astronomical Twilight 6:08 AM EDT 8:04 PM EDT
Moon No Moon Rise 2:42 PM EDT (10/21)
Length of Visible Light 11h 58m
Length of Day
11h 07m
Waning Gibbous, 48% of the Moon is Illuminated
Oct 21
Waning Gibbous
Oct 27
New
Nov 4
First Quarter
Nov 12
Full
Nov 19
Last Quarter

Hourly Weather History & Observations

Time (EDT) Temp. Dew Point Humidity Pressure Visibility Wind Dir Wind Speed Gust Speed Precip Events Conditions
12:53 AM 57.9 °F 55.9 °F 93% 30.00 in 4.0 mi Calm Calm - N/A   Clear
1:53 AM 55.9 °F 55.0 °F 97% 30.02 in 3.0 mi Calm Calm - N/A   Clear
2:25 AM 57.0 °F 55.0 °F 93% 30.00 in 2.5 mi Calm Calm - N/A   Clear
2:34 AM 55.9 °F 55.0 °F 97% 30.00 in 5.0 mi Calm Calm - N/A   Clear
2:53 AM 55.9 °F 55.0 °F 97% 30.02 in 2.5 mi Calm Calm - N/A   Clear
3:00 AM 57.0 °F 55.0 °F 93% 30.00 in 6.0 mi Calm Calm - N/A   Clear
3:16 AM 55.9 °F 54.0 °F 93% 30.00 in 2.0 mi Calm Calm - N/A   Clear
3:29 AM 55.9 °F 54.0 °F 93% 30.00 in 4.0 mi Calm Calm - N/A   Scattered Clouds
3:53 AM 55.9 °F 54.0 °F 93% 30.02 in 8.0 mi Calm Calm - N/A   Mostly Cloudy
4:34 AM 55.0 °F 53.1 °F 93% 30.01 in 2.5 mi Calm Calm - N/A   Clear
4:45 AM 55.9 °F 54.0 °F 93% 30.02 in 4.0 mi Calm Calm - N/A   Partly Cloudy
4:53 AM 55.9 °F 54.0 °F 93% 30.04 in 10.0 mi Calm Calm - N/A   Mostly Cloudy
5:21 AM 55.0 °F 54.0 °F 96% 30.02 in 2.5 mi Calm Calm - N/A   Partly Cloudy
5:31 AM 55.0 °F 54.0 °F 96% 30.02 in 1.0 mi Calm Calm - N/A   Partly Cloudy
5:48 AM 55.4 °F 53.6 °F 94% 30.01 in 0.8 mi Calm Calm - N/A   Scattered Clouds
5:53 AM 55.0 °F 53.1 °F 93% 30.03 in 0.8 mi Calm Calm - N/A   Scattered Clouds
6:00 AM 55.0 °F 53.1 °F 93% 30.01 in 1.0 mi Calm Calm - N/A   Scattered Clouds
6:11 AM 55.0 °F 53.1 °F 93% 30.01 in 3.0 mi Calm Calm - N/A   Partly Cloudy
6:53 AM 55.0 °F 53.1 °F 93% 30.05 in 4.0 mi Calm Calm - N/A   Scattered Clouds
7:03 AM 55.0 °F 54.0 °F 96% 30.03 in 4.0 mi Calm Calm - N/A   Mostly Cloudy
7:53 AM 57.0 °F 55.0 °F 93% 30.07 in 10.0 mi Calm Calm - N/A   Overcast
8:28 AM 57.9 °F 55.9 °F 93% 30.06 in 10.0 mi Calm Calm - N/A   Partly Cloudy
8:53 AM 60.1 °F 55.9 °F 86% 30.09 in 10.0 mi Variable 4.6 mph - N/A   Clear
9:35 AM 61.0 °F 55.0 °F 81% 30.07 in 10.0 mi Variable 4.6 mph - N/A   Mostly Cloudy
9:53 AM 63.0 °F 55.9 °F 78% 30.10 in 10.0 mi Variable 6.9 mph - N/A   Scattered Clouds
10:38 AM 64.9 °F 55.9 °F 73% 30.08 in 10.0 mi Variable 6.9 mph - N/A   Mostly Cloudy
10:53 AM 66.0 °F 55.9 °F 70% 30.10 in 10.0 mi Variable 5.8 mph - N/A   Scattered Clouds
11:39 AM 68.0 °F 55.9 °F 65% 30.09 in 10.0 mi Variable 3.5 mph - N/A   Mostly Cloudy
11:53 AM 66.9 °F 55.9 °F 68% 30.11 in 10.0 mi Variable 3.5 mph - N/A   Overcast
12:53 PM 70.0 °F 57.9 °F 65% 30.09 in 10.0 mi Calm Calm - N/A   Overcast
1:53 PM 73.0 °F 59.0 °F 61% 30.06 in 10.0 mi Variable 5.8 mph - N/A   Overcast
2:53 PM 73.0 °F 59.0 °F 61% 30.04 in 10.0 mi Variable 3.5 mph - N/A   Mostly Cloudy
3:53 PM 73.0 °F 60.1 °F 64% 30.04 in 10.0 mi South 3.5 mph - N/A   Overcast
4:53 PM 73.0 °F 60.1 °F 64% 30.04 in 10.0 mi Variable 4.6 mph - N/A   Overcast
5:53 PM 72.0 °F 60.1 °F 66% 30.04 in 10.0 mi Calm Calm - N/A   Overcast
6:53 PM 69.1 °F 61.0 °F 75% 30.04 in 10.0 mi Calm Calm - N/A   Overcast
7:53 PM 66.9 °F 61.0 °F 81% 30.05 in 10.0 mi Calm Calm - N/A   Overcast
8:53 PM 66.0 °F 61.0 °F 84% 30.04 in 10.0 mi Calm Calm - N/A   Overcast
9:53 PM 66.0 °F 61.0 °F 84% 30.04 in 10.0 mi Calm Calm - N/A   Mostly Cloudy
10:53 PM 64.9 °F 61.0 °F 87% 30.05 in 10.0 mi Calm Calm - N/A   Partly Cloudy
11:53 PM 66.0 °F 61.0 °F 84% 30.04 in 10.0 mi Variable 3.5 mph - N/A   Scattered Clouds